STARLINK-1142, 45093

Orbit data source: Space-Track

STARLINK-1142, 45093 is a payload satellite owned by SpaceX/Seattle (US) in LEO that was launched on Wed, 29 Jan 2020 UTC via an FALCON 9 launch vehicle from the Air Force Eastern Test Range (AFETR). Payload-class satellites include a variety of spacecraft equipped with specific instruments for various scientific and technological missions. These include communications satellites like Starlink; space stations such as the ISS; scientific satellites like the Hubble; Earth observation satellites from companies like Planet Labs, Umbra, and HawkEye 360; GPS; miniature CubeSats for education and research; and military/defense satellites.

Loading next visibility...
Identifier
45093, 2020-006BB
Orbit
LEO
Country
Flag of USUS
Related business
Manufacturer
SpaceX/Seattle
Mission
Partially operational Commercial Communications
Bus & Motor
STARLINK, Unknown motor
Mass
260 kg wet, ~248 kg dry
Launch date (UTC)
2020-01-29 (6 years ago)
Launch vehicle
FALCON 9
Launch site
Air Force Eastern Test Range (AFETR)
Object type
Payload
Rocket body
Debris
Shape & HBR
Box + 1 Pan, 4.4 m
Radar Cross Section
13.562 m², Large (>1 m²)

Expand to show TLE details & history
Last TLE update: 12 hours ago

TLE from 12 hours ago
0 STARLINK-1142
1 45093U 20006BB  25259.26980797  .00078963  00000-0  14056-2 0  9991
2 45093  53.0416 258.5171 0006300  40.0462 320.1009 15.49448104311455
Epoch: 2025-09-16T06:28Z
TLE epoch observation values (Epoch: 2025-09-16T06:28:31.408Z)
Latitude
-0.00003°
Longitude
165.92368°
Altitude
415.95 km
Speed
7.665 km/s
True Right ascension
17h 14m 04s
True Declination
0° 00' 00"
Sunlit
Object was in daylight at epoch
Visualization orbit readout
Latitude
Unknown
Longitude
Unknown
Altitude
Unknown
Speed
Unknown
Apparent Right ascension
Unknown
Apparent Declination
Unknown
Sunlit
N/A
Visualization observer readout
Local Sidereal Time
10:53:24
Azimuth
Unknown
Elevation
Unknown
Doppler factor
Unknown
Orbital elements
Apogee altitude
422.899 km
Perigee altitude
414.335 km
Semi-major axis
6,796.754 km
Eccentricity
0.00063
Inclination
53.0416°
RAAN
258.5171°
Arg. of periapsis
40.0462°
True anomaly
320.05456°
Mean anomaly
320.1009°
Eccentric anomaly
320.07774°
Mean motion
3.87339 °/min
Orbital period
92.94 mins
BSTAR
0.0014056
Loading maneuver chart data...
Computing Atmospheric mass density...

Documentation

Showing up to 5 results
|